FW6463 Weather Reports


Display with metric or nautical units.
time (UTC)temp
F
wind
direction
speed
MPH
gust
MPH
rain 1hr
in
rain 24hr
in
rain mn
in
humidity
%
barometer
mb
20260508225018 62 264 8.0 14.0 0.00 0.00 0.00 56 1014.7
20260508224058 62 266 5.0 9.0 0.00 0.00 0.00 56 1014.7
20260508223035 62 260 6.0 9.0 0.00 0.00 0.00 56 1014.6
20260508222032 63 269 8.0 13.0 0.00 0.00 0.00 55 1014.5
20260508221020 63 259 10.0 15.0 0.00 0.00 0.00 54 1014.4
20260508220044 63 271 5.0 8.0 0.00 0.00 0.00 54 1014.4
20260508215029 63 269 4.0 7.0 0.00 0.00 0.00 53 1014.3
20260508214033 63 273 4.0 7.0 0.00 0.00 0.00 54 1014.3
20260508213021 63 272 3.0 6.0 0.00 0.00 0.00 54 1014.4
20260508212025 63 249 5.0 8.0 0.00 0.00 0.00 53 1014.4
20260508211029 63 256 5.0 8.0 0.00 0.00 0.00 52 1014.4
20260508210016 63 291 4.0 6.0 0.00 0.00 0.00 52 1014.2
20260508205020 63 246 4.0 6.0 0.00 0.00 0.00 51 1014.3
20260508204025 64 253 4.0 8.0 0.00 0.00 0.00 51 1014.4
20260508203030 64 268 5.0 8.0 0.00 0.00 0.00 49 1014.4
20260508202017 64 251 7.0 10.0 0.00 0.00 0.00 50 1014.4
20260508201022 64 220 6.0 12.0 0.00 0.00 0.00 50 1014.5
20260508200026 64 259 7.0 11.0 0.00 0.00 0.00 48 1014.4
20260508195031 64 253 6.0 12.0 0.00 0.00 0.00 48 1014.3
20260508194018 64 257 5.0 7.0 0.00 0.00 0.00 48 1014.3
20260508193023 64 256 9.0 16.0 0.00 0.00 0.00 48 1014.6
20260508192027 0 270 6.0 6.0 0.00 0.00 0.00 1014.4
20260508191032 66 256 7.0 9.0 0.00 0.00 0.00 49 1014.6
20260508190019 67 246 7.0 11.0 0.00 0.00 0.00 45 1014.6
20260508185024 67 255 5.0 9.0 0.00 0.00 0.00 46 1014.7
20260508184028 69 250 9.0 17.0 0.00 0.00 0.00 45 1014.9
20260508183033 68 262 7.0 10.0 0.00 0.00 0.00 47 1015.1
20260508182019 67 255 6.0 10.0 0.00 0.00 0.00 50 1015.3
20260508181024 69 275 10.0 13.0 0.00 0.00 0.00 47 1015.3
20260508180030 68 263 10.0 15.0 0.00 0.00 0.00 50 1015.6
20260508175016 68 240 8.0 13.0 0.00 0.00 0.00 49 1015.6
20260508174041 66 260 6.0 9.0 0.00 0.00 0.00 50 1015.6
20260508173025 66 255 7.0 12.0 0.00 0.00 0.00 50 1015.8
20260508172051 66 259 10.0 12.0 0.00 0.00 0.00 49 1015.9
20260508171017 66 252 7.0 11.0 0.00 0.00 0.00 52 1016.3
20260508170022 64 238 8.0 13.0 0.00 0.00 0.00 52 1016.3
20260508165026 65 238 9.0 15.0 0.00 0.00 0.00 53 1016.4
20260508164032 62 234 9.0 10.0 0.00 0.00 0.00 54 1016.5
20260508163018 63 221 9.0 13.0 0.00 0.00 0.00 53 1016.4
20260508162022 62 261 7.0 13.0 0.00 0.00 0.00 55 1016.7
20260508161047 61 261 7.0 9.0 0.00 0.00 0.00 54 1016.9
20260508160046 60 251 8.0 11.0 0.00 0.00 0.00 55 1017.0
20260508155019 60 226 7.0 15.0 0.00 0.00 0.00 56 1016.9
20260508154024 63 249 9.0 13.0 0.00 0.00 0.00 52 1016.9
20260508153024 62 248 7.0 10.0 0.00 0.00 0.00 54 1016.8
20260508152015 63 259 11.0 15.0 0.00 0.00 0.00 52 1016.8
20260508151020 63 268 10.0 15.0 0.00 0.00 0.00 52 1016.8
20260508150019 62 240 9.0 13.0 0.00 0.00 0.00 54 1017.0
20260508145018 61 216 8.0 13.0 0.00 0.00 0.00 55 1017.1
20260508144016 61 257 8.0 13.0 0.00 0.00 0.00 55 1017.2
20260508143021 60 244 9.0 14.0 0.00 0.00 0.00 58 1017.2
20260508142046 59 229 7.0 10.0 0.00 0.00 0.00 63 1017.2
20260508141052 58 219 5.0 10.0 0.00 0.00 0.00 65 1017.3
20260508140017 57 225 8.0 12.0 0.00 0.00 0.00 64 1017.3
20260508135042 56 209 5.0 8.0 0.00 0.00 0.00 66 1017.3
20260508134026 55 210 7.0 12.0 0.00 0.00 0.00 67 1017.4
20260508133032 54 219 7.0 15.0 0.00 0.00 0.00 67 1017.6
20260508132058 54 266 7.0 10.0 0.00 0.00 0.00 67 1017.6
20260508131022 54 251 9.0 14.0 0.00 0.00 0.00 66 1017.8
20260508130027 54 225 7.0 11.0 0.00 0.00 0.00 66 1017.8
20260508125032 53 240 6.0 10.0 0.00 0.00 0.00 68 1017.8
20260508124022 53 203 6.0 8.0 0.00 0.00 0.00 67 1017.8
20260508123046 52 213 5.0 8.0 0.00 0.00 0.00 68 1017.8
20260508122050 51 241 4.0 7.0 0.00 0.00 0.00 68 1017.8
20260508121016 50 216 6.0 10.0 0.00 0.00 0.00 69 1017.6
20260508120040 49 244 4.0 6.0 0.00 0.00 0.00 72 1017.3
20260508115024 48 238 4.0 6.0 0.00 0.00 0.00 75 1017.3
20260508114029 44 233 2.0 4.0 0.00 0.00 0.00 83 1017.3
20260508113036 44 180 0.0 2.0 0.00 0.00 0.00 82 1017.2
20260508112021 41 177 1.0 2.0 0.00 0.00 0.00 85 1017.2
20260508111025 39 180 1.0 2.0 0.00 0.00 0.00 90 1017.3
20260508110152 37 206 0.0 2.0 0.00 0.00 0.00 96 1017.0
20260508105018 36 0.0 0.0 0.00 0.00 0.00 96 1017.0
20260508104042 36 180 0.0 1.0 0.00 0.00 0.00 94 1016.9
20260508103208 37 162 1.0 2.0 0.00 0.00 0.00 94 1016.8
20260508102031 37 0.0 0.0 0.00 0.00 0.00 94 1016.9
20260508101018 37 180 2.0 2.0 0.00 0.00 0.00 94 1016.7
20260508100044 36 0.0 0.0 0.00 0.00 0.00 94 1016.5
20260508095048 37 161 1.0 2.0 0.00 0.00 0.00 93 1016.4
20260508094053 37 166 2.0 3.0 0.00 0.00 0.00 94 1016.3
20260508093019 37 170 1.0 2.0 0.00 0.00 0.00 94 1016.5
20260508092024 37 171 2.0 2.0 0.00 0.00 0.00 93 1016.5
20260508091028 37 167 1.0 3.0 0.00 0.00 0.00 94 1016.7
20260508090015 38 180 0.0 2.0 0.00 0.00 0.00 94 1016.6
20260508085021 38 157 2.0 3.0 0.00 0.00 0.00 93 1016.6
20260508084025 38 172 2.0 3.0 0.00 0.00 0.00 93 1016.6
20260508083049 38 159 2.0 3.0 0.00 0.00 0.00 93 1016.5
20260508082037 38 162 2.0 2.0 0.00 0.00 0.00 93 1016.4
20260508081021 39 176 2.0 3.0 0.00 0.00 0.00 93 1016.4
20260508080026 39 162 2.0 3.0 0.00 0.00 0.00 92 1016.4
20260508075025 39 170 2.0 3.0 0.00 0.00 0.00 92 1016.3
20260508074026 39 180 2.0 3.0 0.00 0.00 0.00 92 1016.3
20260508073017 40 158 0.0 2.0 0.00 0.00 0.00 90 1016.4
20260508072021 40 166 2.0 3.0 0.00 0.00 0.00 89 1016.3
20260508071026 41 167 1.0 3.0 0.00 0.00 0.00 87 1016.4
20260508070031 41 161 2.0 3.0 0.00 0.00 0.00 86 1016.3
20260508065018 42 172 2.0 3.0 0.00 0.00 0.00 85 1016.3
20260508064023 43 170 1.0 2.0 0.00 0.00 0.00 82 1016.3
20260508063027 43 177 2.0 4.0 0.00 0.00 0.00 81 1016.3
20260508062046 44 0.0 0.0 0.00 0.00 0.00 78 1016.4
20260508061019 45 181 1.0 2.0 0.00 0.00 0.00 75 1016.3
20260508060023 46 153 1.0 2.0 0.00 0.00 0.00 72 1016.3
20260508055023 47 165 1.0 2.0 0.00 0.00 0.00 70 1016.3
20260508054035 48 24 1.0 3.0 0.00 0.00 0.00 68 1016.3
20260508053020 49 338 3.0 7.0 0.00 0.00 0.00 68 1016.2
20260508052059 49 327 2.0 6.0 0.00 0.00 0.00 67 1016.2
20260508051037 50 307 2.0 4.0 0.00 0.00 0.00 67 1016.0
20260508050016 51 299 2.0 6.0 0.00 0.00 0.00 66 1015.8
20260508045041 51 308 4.0 9.0 0.00 0.00 0.00 66 1015.7
20260508044026 51 338 4.0 9.0 0.00 0.00 0.00 66 1015.6
20260508043030 52 315 6.0 11.0 0.00 0.00 0.00 65 1015.5
20260508042018 52 328 4.0 9.0 0.00 0.00 0.00 63 1015.2
20260508041022 52 309 6.0 9.0 0.00 0.00 0.00 63 1015.0
20260508040027 50 284 3.0 5.0 0.00 0.00 0.00 66 1014.7
20260508035032 48 276 2.0 4.0 0.00 0.00 0.00 70 1014.6
20260508034018 46 318 1.0 5.0 0.00 0.00 0.00 77 1014.5
20260508033024 46 161 1.0 2.0 0.00 0.00 0.00 82 1014.4
20260508032028 47 171 1.0 2.0 0.00 0.00 0.00 78 1014.4
20260508031033 47 191 0.0 1.0 0.00 0.00 0.00 78 1014.0
20260508030020 48 163 1.0 2.0 0.00 0.00 0.00 75 1014.0
20260508025024 48 174 2.0 2.0 0.00 0.00 0.00 76 1014.0
20260508024029 48 180 2.0 2.0 0.00 0.00 0.00 77 1014.0
20260508023016 49 169 2.0 2.0 0.00 0.00 0.00 77 1013.9
20260508022021 50 170 2.0 3.0 0.00 0.00 0.00 74 1013.9
20260508021025 51 178 2.0 3.0 0.00 0.00 0.00 69 1013.7
20260508020050 51 181 2.0 2.0 0.00 0.00 0.00 70 1013.5
20260508015016 51 192 2.0 4.0 0.00 0.00 0.00 71 1013.5
20260508014022 52 182 2.0 3.0 0.00 0.00 0.00 67 1013.5
20260508013028 52 183 1.0 2.0 0.00 0.00 0.00 65 1013.3
20260508012031 53 225 0.0 1.0 0.00 0.00 0.00 64 1013.2
20260508011018 54 248 0.0 2.0 0.00 0.00 0.00 62 1013.0
20260508010023 55 191 1.0 2.0 0.00 0.00 0.00 61 1013.0
20260508005027 57 201 1.0 2.0 0.00 0.00 0.00 57 1012.8
20260508004032 58 235 3.0 5.0 0.00 0.00 0.00 53 1012.7
20260508003019 58 277 3.0 5.0 0.00 0.00 0.00 51 1012.6
20260508002025 59 282 3.0 6.0 0.00 0.00 0.00 50 1012.5
20260508001028 60 333 5.0 7.0 0.00 0.00 0.00 50 1012.4
20260508000033 61 283 3.0 6.0 0.00 0.00 0.00 49 1012.2
20260507235041 61 298 4.0 6.0 0.00 0.00 0.00 48 1012.2
20260507234025 62 311 4.0 8.0 0.00 0.00 0.00 48 1012.2
20260507233030 63 321 5.0 8.0 0.00 0.00 0.00 47 1012.0
20260507232016 63 280 4.0 7.0 0.00 0.00 0.00 46 1011.9
20260507231021 63 283 5.0 7.0 0.00 0.00 0.00 46 1011.8
20260507230027 64 293 5.0 7.0 0.00 0.00 0.00 45 1011.7